EHI
4 2 3 3 1 0 0 0 0 0 0 0 0 0 0 0 0 0 0 0 0 0 0 1 2 3 3 2 1 0 0 0 0 0 0 0 0 0 0 0 0 0 0 0 0 0 0 0 0
2 2 3 2 1 0 0 0 0 0 0 0 0 0 0 0 0 0 0 0 0 0 0 1 2 2 2 2 1 0 0 0 0 0 0 0 0 0 0 0 0 0 0 0 0 0 0 0 0
2 2 2 1 0 0 0 0 0 0 0 0 0 0 0 0 0 0 0 0 0 0 0 0 1 1 1 1 0 0 0 0 0 0 0 0 0 0 0 0 0 0 0 0 0 0 0 0 0
3 2 1 0 0 0 0 0 0 0 0 0 0 0 0 0 0 0 0 0 0 0 0 0 0 0 0 0 0 0 0 0 0 0 0 0 0 0 0 0 0 0 0 0 0 0 0 0 0
4 2 0 0 0 0 0 0 0 0 0 0 0 0 0 0 0 0 0 0 0 0 1 1 1 0 0 0 0 0 0 0 0 0 0 0 0 0 0 0 0 0 0 0 0 0 0 0 0
2 1 0 0 0 0 0 0 0 0 0 0 0 0 0 0 0 0 0 0 0 0 1 1 1 0 0 0 0 0 0 0 0 0 0 0 1 1 1 0 0 0 0 0 0 0 0 0 0
0 0 0 0 0 0 0 0 0 0 0 0 0 0 1 1 1 0 0 0 0 0 0 0 0 0 0 0 0 0 0 0 0 0 1 1 1 2 1 0 0 0 0 0 0 0 0 0 0
0 0 0 0 0 0 0 0 0 0 0 0 0 0 2 4 4 1 0 0 0 0 0 0 0 0 0 0 0 0 0 0 0 0 0 0 1 1 0 0 0 0 0 0 0 0 0 0 0
0 0 0 0 0 0 0 0 0 0 0 0 0 1 3 6 6 3 1 0 0 0 0 0 0 0 0 0 0 0 0 0 0 0 0 0 0 0 0 0 0 0 0 0 1 0 0 0 0
0 0 0 0 0 0 0 0 0 0 0 0 1 3 4 6 5 3 1 1 2 1 1 1 1 1 0 0 0 0 0 0 0 0 0 0 0 0 0 0 0 0 0 0 0 0 0 0 0
0 0 0 0 0 0 0 0 0 0 0 0 2 5 6 6 4 2 3 4 4 4 2 1 1 1 1 1 1 1 1 1 1 0 0 0 0 0 0 0 0 0 0 0 0 0 0 0 0
0 0 0 0 0 0 0 1 1 1 1 1 3 7 9 6 3 3 4 5 5 4 3 1 1 1 1 2 2 2 2 2 1 0 0 0 0 0 0 0 0 0 0 0 0 0 0 0 0
0 0 0 0 0 0 0 1 2 2 2 3 4 6 7 5 3 4 6 7 6 4 3 2 1 2 3 4 3 2 1 1 1 0 0 0 0 0 0 0 0 0 0 0 0 0 0 0 0
0 0 0 0 0 0 0 1 2 3 3 4 4 4 3 2 3 5 8 10 9 8 7 5 5 5 6 5 3 2 1 0 0 0 0 0 0 0 0 0 0 0 0 0 0 0 0 0 0
0 0 0 0 0 0 0 0 2 3 3 4 4 4 2 2 4 7 9 10 9 11 11 10 8 8 8 7 6 4 2 1 0 0 0 0 0 0 0 0 0 0 0 0 0 0 0 0 0
0 0 0 0 0 0 0 1 2 3 3 4 5 6 7 6 6 6 7 6 6 10 15 15 12 12 12 12 10 8 5 2 1 1 0 0 0 0 0 0 0 0 0 0 0 0 0 0 1
0 0 0 0 0 0 0 2 4 3 2 3 6 9 12 13 11 7 5 5 7 12 18 20 18 18 17 16 14 11 7 4 2 2 1 0 0 0 0 0 0 0 0 0 0 0 1 1 2
0 0 0 0 0 0 0 2 6 5 3 2 6 11 17 20 19 12 8 9 14 19 23 24 24 24 23 20 16 12 8 4 3 2 1 0 0 0 1 1 1 0 0 0 0 0 1 2 2
0 0 0 0 0 0 0 3 6 7 5 3 6 12 19 25 25 20 15 16 21 27 29 30 30 30 29 26 19 14 9 5 3 2 1 1 1 1 2 3 3 2 1 0 0 0 1 1 1
0 0 0 0 0 0 0 2 5 7 6 5 6 11 19 26 29 28 25 25 29 34 35 35 34 32 31 30 23 16 10 7 6 4 2 2 3 3 3 3 3 4 3 1 0 0 0 0 0
0 0 0 0 0 0 0 2 5 8 9 9 8 11 18 26 32 34 35 36 36 38 38 36 36 34 31 28 24 18 14 11 8 6 4 3 4 5 5 3 2 2 2 2 0 0 1 1 0
0 0 0 0 0 0 0 2 5 9 13 15 14 14 18 25 32 37 41 42 40 37 35 36 38 36 32 26 21 19 17 13 9 5 4 3 4 5 6 4 2 2 2 1 1 1 2 2 1
0 0 0 0 0 0 0 0 2 6 11 17 18 18 19 24 31 36 38 40 38 32 30 34 38 37 32 27 22 20 19 15 9 5 4 5 4 4 5 6 6 5 4 3 2 3 3 3 3
0 0 0 0 0 0 0 0 0 2 5 12 19 22 23 27 33 35 36 37 34 30 27 30 33 34 32 29 25 23 22 18 13 9 7 6 5 4 5 6 9 9 6 4 3 3 4 4 4
0 0 0 0 0 0 0 0 0 1 2 7 16 22 25 28 34 38 39 39 36 33 29 29 32 33 32 32 30 26 23 20 17 12 9 7 6 5 6 7 9 10 8 5 3 3 3 4 4
0 0 0 0 0 0 0 0 1 1 2 3 10 17 22 26 34 39 40 39 39 37 34 34 36 36 34 33 31 26 23 20 18 14 10 8 7 7 7 8 9 9 8 5 4 3 3 3 4
0 0 0 0 0 0 0 0 1 2 2 3 8 16 22 27 33 38 38 37 37 37 37 38 39 39 37 34 28 24 23 22 20 17 13 10 11 10 8 8 9 9 7 6 5 4 3 4 4
0 0 0 0 0 0 0 0 1 3 5 7 12 21 28 31 35 39 38 36 36 37 39 38 39 40 38 33 27 24 24 25 23 20 16 13 12 11 9 8 8 7 7 6 6 4 3 3 4
0 0 0 0 0 0 0 0 1 4 8 11 18 26 32 34 38 41 40 38 38 38 39 39 39 38 36 33 30 27 26 25 24 21 17 15 13 11 9 8 7 7 7 7 7 5 4 4 4
0 0 0 0 0 0 0 1 2 4 7 12 21 29 34 35 40 43 42 41 40 39 40 41 40 38 36 34 34 31 27 24 23 21 18 15 13 12 10 8 7 6 7 8 8 6 5 4 4
Wind_Speed
10 9 7 6 3 9 14 11 10 9 8 9 9 8 10 11 9 12 9 10 9 10 11 11 9 9 10 10 10 10 11 11 11 11 11 11 11 12 12 11 12 11 12 12 13 13 13 12 12
8 7 7 2 7 11 13 11 11 11 10 9 9 9 11 11 11 11 10 10 9 10 10 10 10 9 9 10 10 10 10 10 10 10 10 10 10 11 11 11 11 12 12 12 12 12 12 12 12
7 7 4 5 12 13 13 11 11 10 7 6 7 9 9 10 9 8 11 11 10 9 9 11 9 9 9 9 9 10 10 10 10 10 10 10 10 11 11 11 11 12 12 12 12 12 11 12 12
6 6 1 9 16 14 12 10 9 10 9 7 8 10 10 8 6 10 13 11 10 10 9 13 8 9 9 9 9 9 10 10 10 10 10 10 10 11 11 11 11 11 11 11 11 11 11 11 11
6 1 8 13 15 12 11 8 5 7 7 8 8 13 11 9 10 13 12 10 9 10 9 12 9 9 9 9 9 9 10 10 10 10 10 11 11 11 11 11 11 11 11 10 10 10 10 10 10
3 2 9 12 13 10 9 7 7 10 11 10 11 12 10 8 11 11 11 9 9 9 10 12 10 8 8 8 8 8 9 9 9 10 10 10 10 10 11 10 10 10 10 10 10 9 9 9 10
2 6 11 13 11 10 8 6 7 9 10 9 8 11 10 10 10 10 9 8 7 8 9 8 10 10 9 8 8 8 8 9 9 9 10 10 10 10 10 10 10 10 9 9 9 8 8 9 9
3 4 11 11 10 11 8 7 8 8 9 8 4 8 11 12 11 10 10 8 7 7 7 7 7 7 8 9 8 8 8 8 8 9 8 9 10 10 9 10 9 9 8 8 8 8 9 9 9
4 4 10 10 10 10 9 9 8 7 9 7 6 9 14 16 13 11 10 8 7 6 5 5 7 6 5 7 9 8 8 7 7 8 7 5 5 8 7 10 8 8 8 8 8 7 8 8 9
1 8 11 8 8 10 9 8 8 8 9 9 11 13 16 15 12 11 10 9 8 7 6 5 4 5 4 4 5 4 4 5 3 4 4 4 4 3 6 9 7 7 7 7 7 6 7 6 6
5 9 8 7 7 8 9 8 6 7 8 9 12 16 16 14 12 10 8 7 7 7 5 6 5 4 3 2 2 2 2 3 3 4 3 3 3 3 4 4 6 6 6 5 6 5 2 2 3
6 8 5 7 7 7 8 7 6 5 9 10 13 16 15 13 11 9 8 7 7 6 5 5 5 3 2 1 2 2 2 2 2 3 2 3 2 1 2 1 3 3 3 2 2 2 3 2 2
6 6 6 7 7 7 7 7 6 7 9 12 14 14 13 11 10 8 7 6 6 6 6 5 4 4 3 2 1 2 1 1 2 2 2 1 2 2 2 1 1 1 2 3 2 2 2 2 2
5 6 7 7 7 6 7 7 6 8 11 13 14 13 12 10 9 8 8 7 7 6 6 6 5 5 4 3 2 1 1 1 1 1 2 1 0 1 1 2 1 1 1 1 1 2 2 2 1
5 7 8 6 6 6 6 7 6 9 12 13 13 11 11 10 9 8 7 7 7 7 7 6 6 5 5 4 3 2 2 2 1 1 1 1 1 1 2 1 2 1 1 2 2 2 2 2 2
6 7 7 6 5 5 8 6 9 11 12 12 12 11 10 9 9 7 7 7 7 7 7 6 6 6 5 4 3 2 1 1 1 1 1 2 1 2 2 2 2 1 2 2 2 3 2 2 2
7 5 4 7 5 5 7 4 9 10 11 11 11 11 10 10 9 8 7 7 7 6 6 6 6 5 5 5 4 3 2 2 2 2 2 1 2 3 3 2 1 3 2 2 3 2 3 2 2
4 4 3 4 6 6 6 3 8 10 10 10 10 10 10 10 9 8 8 7 7 7 6 7 6 6 6 5 4 3 3 3 3 3 2 3 2 3 3 3 3 4 3 3 2 2 3 3 3
2 3 3 3 3 6 6 4 6 9 10 9 10 10 10 9 8 8 8 7 7 7 7 7 7 6 5 4 4 3 4 3 3 3 3 3 4 3 3 3 2 4 3 3 4 4 4 4 3
5 5 4 5 3 4 4 4 5 8 9 9 9 9 9 9 9 8 8 8 8 8 7 7 7 6 6 4 3 2 2 2 3 2 2 4 4 4 3 3 4 4 3 4 5 4 4 3 3
6 4 2 3 4 5 5 6 6 7 8 8 9 9 9 9 9 9 9 8 8 7 7 6 6 6 6 5 3 3 2 3 3 3 3 3 3 3 3 3 4 4 5 4 5 5 5 4 3
6 2 2 4 6 3 4 2 6 7 9 9 9 9 9 9 9 9 9 8 8 7 7 7 6 6 5 5 4 4 3 3 2 2 2 2 3 3 4 4 4 4 4 4 5 4 4 5 4
2 3 3 4 5 4 3 6 4 6 6 8 8 9 8 9 9 9 9 8 8 7 7 6 6 5 5 4 4 4 3 2 2 2 2 2 2 3 3 4 4 4 4 4 5 4 4 4 4
7 7 4 6 7 6 1 6 1 3 2 4 7 9 9 9 9 9 8 8 8 7 7 7 6 5 5 4 4 4 3 2 2 2 2 2 1 2 3 3 4 4 4 4 4 4 4 4 4
10 9 7 8 7 3 2 5 1 3 1 2 5 8 9 10 10 10 10 10 9 8 7 7 6 5 5 4 4 4 3 3 3 2 2 2 1 1 1 2 3 3 3 4 4 4 4 4 4
12 12 8 6 5 4 5 4 2 3 2 3 5 7 9 10 10 10 10 10 9 9 8 7 6 5 4 4 3 2 2 2 1 1 2 1 1 2 2 2 2 2 2 3 3 3 3 3 4
12 11 7 6 5 5 3 3 3 4 5 6 7 8 9 10 10 11 10 10 9 9 8 7 7 6 5 4 4 3 2 1 1 1 1 1 1 1 1 1 1 1 2 2 2 2 2 2 3
6 8 6 8 6 7 5 6 4 5 5 7 8 9 9 10 10 10 10 10 9 9 8 7 7 6 5 5 4 3 3 2 1 1 0 1 1 1 1 1 1 1 1 1 2 2 1 2 2
9 9 8 7 7 7 5 3 4 3 4 5 7 8 9 9 9 10 9 9 9 9 8 8 7 6 5 5 4 3 2 2 2 1 0 0 0 1 0 0 0 1 1 1 1 1 1 1 1
12 12 11 8 7 7 7 2 6 2 3 4 6 8 8 8 9 9 10 10 10 9 8 8 7 6 6 5 5 4 3 2 2 2 1 1 1 1 1 1 1 1 1 1 1 1 0 0 0
Wind_Direction
177 184 214 235 141 79 73 73 79 88 75 67 62 56 61 44 44 83 103 114 118 117 114 119 102 99 97 97 98 98 97 96 96 96 96 96 98 99 98 99 100 101 101 102 103 103 102 103 104
174 194 229 244 74 82 76 75 77 74 91 100 86 79 79 70 68 100 121 122 128 119 117 106 106 102 99 98 99 99 98 96 95 94 94 94 95 97 98 99 100 100 101 103 104 103 103 102 103
187 232 272 67 64 70 81 82 87 92 98 93 87 70 65 81 96 106 119 132 128 110 108 108 113 106 102 98 99 99 97 96 96 94 95 95 96 98 97 98 99 100 101 102 103 104 104 105 106
222 217 135 75 76 71 83 93 102 106 96 87 99 90 79 71 89 111 128 135 127 127 123 110 115 110 104 99 98 99 96 95 94 94 94 93 95 98 99 99 100 101 101 101 103 105 106 107 108
240 230 92 84 81 84 86 88 84 89 89 96 98 99 90 77 101 120 133 137 132 122 116 116 117 112 107 103 100 97 95 94 93 93 92 93 94 97 98 98 100 101 101 101 101 104 108 111 111
229 112 85 85 89 93 94 90 90 92 100 104 107 105 91 109 124 131 135 136 127 125 119 116 120 113 108 106 103 100 96 94 94 94 92 94 95 95 97 98 101 102 102 101 101 103 109 113 113
14 73 82 89 98 99 92 91 91 100 104 99 106 105 115 132 130 134 131 128 125 121 122 132 135 131 123 111 107 104 99 97 96 95 96 97 98 97 100 100 102 105 105 103 103 103 107 113 117
328 101 93 90 93 95 105 98 94 100 96 108 114 115 132 140 142 138 136 138 133 129 127 131 126 127 139 130 117 108 105 102 101 100 101 109 115 114 120 118 104 106 106 104 103 103 109 113 117
259 94 84 82 87 103 123 119 107 100 112 107 81 91 119 137 146 146 146 144 139 132 129 135 131 132 132 125 126 135 130 124 138 124 128 166 135 123 132 93 106 109 108 105 103 108 118 130 129
325 81 76 71 84 110 127 123 124 135 124 117 109 108 126 144 154 158 156 155 153 151 152 140 136 126 131 123 134 139 140 131 132 110 129 122 98 88 100 109 111 113 116 120 113 126 160 188 142
65 75 85 96 99 114 128 126 133 137 119 127 135 139 148 154 160 163 160 156 151 157 156 147 142 150 153 129 137 111 113 128 140 122 129 111 131 135 130 136 141 143 160 147 141 175 149 112 95
87 84 89 102 118 130 124 125 127 99 84 116 135 145 154 162 165 166 161 159 154 160 159 149 141 155 153 140 132 158 169 156 133 133 185 139 137 129 109 132 130 151 140 132 150 133 114 101 110
95 98 99 112 127 124 129 123 114 105 106 124 135 148 159 164 162 162 159 163 164 171 168 157 160 163 164 169 217 158 144 140 130 131 133 168 167 158 140 127 141 147 141 160 171 140 128 151 158
91 111 121 128 128 141 143 131 133 118 131 138 147 157 164 165 166 165 172 177 179 181 178 171 180 180 178 180 194 183 175 184 171 151 126 213 164 151 191 178 186 180 170 116 185 157 174 192 161
143 140 136 134 146 150 169 145 131 134 146 151 158 162 165 170 173 180 182 186 187 185 183 184 185 185 189 193 199 195 192 183 206 168 168 205 204 177 236 211 204 191 174 178 205 202 202 203 192
183 186 153 137 164 164 224 125 133 153 160 161 165 167 173 178 184 184 185 194 195 190 186 193 195 182 187 198 206 208 207 195 227 242 220 216 239 223 246 239 223 215 223 211 205 228 224 215 222
196 191 136 141 176 183 229 117 136 164 171 170 174 176 180 181 192 190 190 192 196 196 193 197 204 194 193 195 200 202 203 221 240 243 247 236 247 244 246 254 268 250 239 231 237 200 246 229 237
179 174 161 151 162 206 219 157 145 172 184 180 181 182 183 187 191 189 191 191 192 193 195 203 205 201 199 200 198 205 212 218 229 237 244 258 247 246 256 242 235 252 242 237 238 238 237 244 241
203 217 164 117 142 218 222 209 171 175 192 189 188 188 189 190 183 181 184 187 188 190 194 202 208 198 201 203 208 205 209 214 219 231 233 247 257 253 256 267 236 247 239 250 244 243 229 232 231
210 214 172 135 146 235 230 221 184 188 199 200 197 193 194 185 179 180 184 187 190 191 195 199 203 200 201 198 208 217 234 235 229 244 238 245 249 253 242 248 253 246 246 242 248 241 258 248 225
213 231 189 141 161 201 247 200 181 185 195 199 205 202 197 192 185 182 186 189 187 189 192 192 196 198 202 199 204 207 208 231 224 232 237 245 248 248 261 261 265 261 250 238 243 238 241 248 235
201 200 214 188 220 176 265 249 150 177 191 200 201 199 197 187 184 184 182 181 183 185 182 186 188 193 191 193 207 214 219 229 235 245 250 256 246 250 252 254 259 261 260 250 244 232 240 245 246
164 147 196 219 244 250 223 278 124 164 197 196 194 193 190 181 180 181 179 175 176 176 173 174 176 180 183 192 199 217 227 230 231 230 237 256 245 246 256 259 257 249 251 252 254 251 246 239 245
146 159 174 222 241 239 254 277 152 135 187 171 173 182 183 176 174 171 168 166 168 167 168 168 168 173 177 185 193 211 221 235 250 253 262 252 240 236 249 257 255 249 249 247 246 245 238 244 248
199 203 208 214 222 222 134 259 48 72 70 163 162 168 175 174 171 167 167 166 166 167 167 163 163 169 175 179 190 202 214 220 231 250 258 280 278 265 270 271 264 263 254 249 247 240 249 243 243
209 223 236 247 238 187 179 240 98 86 93 147 155 155 161 165 166 165 166 167 167 168 168 163 162 168 170 172 181 190 203 218 220 243 286 291 304 312 321 284 271 268 266 259 248 249 248 244 245
199 224 251 250 262 262 202 194 162 154 149 149 149 152 156 160 162 164 167 168 167 167 166 164 163 162 162 165 167 162 169 200 175 170 237 272 305 299 325 314 305 299 285 273 255 246 258 255 246
251 211 213 242 242 244 218 221 188 164 155 157 158 159 154 156 158 161 165 166 165 163 159 162 162 162 162 163 167 153 160 168 176 193 22 5 346 338 328 333 314 307 306 294 277 259 251 243 250
184 202 218 234 253 257 237 191 98 141 155 168 165 160 157 158 157 158 161 161 160 158 157 160 161 162 161 157 155 151 151 155 157 151 124 67 18 4 356 324 334 343 346 334 313 296 271 244 266
217 210 204 218 219 248 267 159 100 117 148 162 158 154 155 155 153 154 155 157 159 159 160 162 162 162 160 154 151 149 145 139 136 115 98 89 73 38 23 20 38 23 26 21 15 336 25 301 8